Weather in Kucheryanovo

Russia / Udmurt Republic     56°07′58″N   52°30′39″E
temp.,
°C
wind,
m/s
gust,
m/s
humid.,
%
clouds,
%
prec.,
mm/h
press.,
hPa
HPBL,
m
14 may, fri
fri1401:00+17sse235715 0.0 102419
04:00+16sse335936 0.0 102430
07:00+18sse356651 0.1 1024135
10:00+24s45435 0.2 1024663
13:00+27s673466 0.0 10221305
16:00+27s683333 0.0 10211653
19:00+24s495098 0.0 1021206
22:00+19s412575 0.0 1020224
15 may, sat
sat1501:00+17ssw4106291 0.0 1020169
04:00+16sw356813 0.0 102192
07:00+19ssw356350 0.0 1021169
10:00+23ssw464588 0.0 1021489
13:00+27sw6836100 0.0 1020964
16:00+28sw593897 0.0 10191287
19:00+24ssw51150100 0.0 1019252
22:00+19ssw49605 0.0 1019144
16 may, sun
sun1601:00+18ssw346029 0.0 101961
04:00+16ssw34575 0.0 101950
07:00+19ssw310555 0.0 1020237
10:00+25ssw69385 0.0 1019627
13:00+28sw79335 0.0 10191318
16:00+29ssw683219 0.0 10183031
19:00+25ssw4949100 0.0 1017185
22:00+20ssw365998 0.0 101789
17 may, mon
mon1701:00+18sw3864100 0.0 1017127
04:00+17wsw3867100 0.0 1018119
07:00+19wsw356540 0.0 1018168
10:00+24sw454785 0.0 1018698
13:00+27wsw583616 0.0 10181621
16:00+28w583413 0.0 10171921
19:00+25w33515 0.0 101756
22:00+20w1161100 0.0 101711
18 may, tue
tue1801:00+18nnw3572100 0.1 101896
04:00+16wsw118153 0.1 101811
07:00+20wnw116888 0.0 1018105
10:00+25sw224413 0.0 1018665
13:00+28w343644 0.0 10181534
16:00+29wsw453070 0.0 10172629
19:00+24wnw1147100 0.0 101713
22:00+23ssw1149100 0.0 101811